[[{"header":{"parameterUnit":"m.s-1","parameterCategory":1,"la1":30.2991,"la2":30.254,"lo1":-89.0895,"lo2":-89.0444,"dy":0.0017,"dx":0.0017,"nx":28,"ny":28,"refTime":"2023-09-05T03:00:00:Z","depth":0,"parameterNumber":2,"parameterNumberName":"U-component_of_WINDS"},"data":[0,0,0,0,0,0,0,0,0,0,0,0,0,0,0,0,0,0,0,0,0,0,0,0,0,0,0,0,0,0,0,0,0,0,0,0,0,0,0,0,0,0,0,0,0,0,0,0,0,0,0,0,0,0,0,0,0,0,-4.3334,-4.3334,0,-4.335,-4.335,-4.335,-4.3244,-4.3241,-4.3238,-4.3235,-4.3248,-4.3251,-4.3254,0,0,0,0,0,0,0,0,0,0,0,0,0,-4.321,-4.3213,-4.3334,-4.3334,-4.3334,-4.335,-4.335,-4.335,-4.3245,-4.3241,-4.3237,-4.3234,-4.3247,-4.3251,-4.3255,0,0,0,0,0,0,0,0,0,0,0,0,0,-4.3248,-4.3213,-4.3334,-4.3284,-4.3279,-4.335,-4.335,-4.335,-4.3245,-4.3241,-4.3237,-4.3232,-4.3246,-4.3251,-4.3255,-4.3373,0,0,-4.3269,-4.3271,0,0,0,0,0,0,0,0,-4.3246,-4.3253,-4.3291,-4.3287,-4.3283,-4.3291,-4.3311,-4.3358,-4.3247,-4.3258,-4.3235,-4.323,-4.3266,-4.3269,-4.3281,-4.3374,-4.3375,-4.327,-4.3273,-4.3275,-4.3276,0,0,0,0,0,0,0,-4.3244,-4.3252,-4.334,-4.3292,-4.3287,-4.3259,-4.326,-4.3319,-4.3287,-4.3257,-4.3249,-4.3253,-4.3263,-4.3277,-4.3281,-4.3375,-4.327,-4.3274,-4.3277,-4.3279,-4.3564,-4.3568,0,0,0,0,0,0,-4.3248,-4.325,-4.334,-4.3341,-4.3253,-4.3265,-4.3266,-4.3292,-4.3286,-4.3281,-4.3257,-4.3248,-4.3271,-4.3275,-4.3281,-4.3416,-4.3275,-4.3279,-4.3282,-4.3559,-4.3565,-4.357,0,0,0,0,0,0,-4.3246,-4.3257,-4.3339,-4.3293,-4.3302,-4.3272,-4.3303,-4.3295,-4.3309,-4.3286,-4.3279,-4.3277,-4.3268,-4.3274,-4.3351,-4.3415,-4.3281,-4.3285,-4.3553,-4.3561,-4.3567,-4.369,0,0,0,0,0,0,-4.3243,-4.3257,-4.3302,-4.3295,-4.3305,-4.341,-4.3307,-4.3299,-4.3318,-4.3307,-4.3303,-4.3298,-4.3265,-4.3345,-4.3356,-4.3419,-4.3289,-4.3547,-4.3557,-4.3565,-4.368,-4.3701,-4.3718,0,0,0,0,0,-4.3239,-4.3336,-4.3305,-4.3316,-4.3361,-4.3414,-4.3419,-4.3379,-4.3324,-4.3368,-4.3353,-4.3298,-4.3408,-4.3353,-4.3365,-4.3431,-4.3543,-4.3554,-4.3564,-4.3671,-4.3697,-4.3718,0,0,0,0,0,0,-4.3349,-4.3334,-4.3299,-4.3397,-4.3408,-4.3396,-4.345,-4.3407,-4.3433,-4.3421,-4.337,-4.337,-4.3455,-4.3451,-4.3391,-4.3544,-4.3465,-4.3479,-4.3543,-4.3566,-4.3585,-4.3582,-4.3293,0,0,0,0,0,-4.3386,-4.3431,-4.3415,-4.3503,-4.351,-4.348,-4.3502,-4.3471,-4.3479,-4.3482,-4.3473,-4.3482,-4.3518,-4.3543,-4.3575,-4.3681,-4.3677,-4.3732,-4.3751,-4.3767,-4.3778,-4.3831,-4.3854,-4.3605,-4.3605,-4.3605,0,0,-4.346,-4.3457,-4.3489,-4.3525,-4.3529,-4.3576,-4.3484,-4.3538,-4.3572,-4.349,-4.3561,-4.3556,-4.3562,-4.3654,-4.3694,-4.3653,-4.3847,-4.3781,-4.3793,-4.3795,-4.3845,-4.3868,-4.3889,-4.3612,-4.3611,-4.361,0,0,-4.3618,-4.3622,-4.3694,-4.3702,-4.371,-4.369,-4.3708,-4.3703,-4.3696,-4.3767,-4.3706,-4.3746,-4.381,-4.3817,-4.3829,-4.3993,-4.3942,-4.4005,-4.4102,-4.4155,-4.4175,-4.4192,-4.4247,-4.4268,-4.4017,-4.4017,-4.4017,0,-4.3708,-4.3777,-4.3737,-4.3795,-4.3812,-4.3743,-4.3814,-4.3823,-4.3842,-4.3854,-4.381,-4.3888,-4.3888,-4.3979,-4.4019,-4.4033,-4.4049,-4.4002,-4.4176,-4.4192,-4.4207,-4.4259,-4.4281,-4.4024,-4.4024,-4.4023,-4.4022,0,-4.3887,-4.3936,-4.3994,-4.4014,-4.4038,-4.4103,-4.4071,-4.41,-4.4068,-4.4053,-4.4125,-4.4124,-4.4154,-4.4174,-4.4143,-4.4261,-4.4235,-4.4185,-4.4103,-4.4239,-4.4287,-4.4307,-4.4035,-4.4032,-4.403,-4.4028,0,0,-4.4111,-4.411,-4.4131,-4.4139,-4.4145,-4.4181,-4.4243,-4.4274,-4.4298,-4.4315,-4.4363,-4.442,-4.4373,-4.4387,-4.4357,-4.4404,-4.453,-4.4347,-4.4346,-4.4377,-4.4656,-4.4691,-4.4715,-4.4499,-4.4503,-4.4506,-4.4654,0,-4.4262,-4.4368,-4.4334,-4.444,-4.4484,-4.442,-4.4473,-4.4482,-4.447,-4.4505,-4.4491,-4.4531,-4.4468,-4.4475,-4.452,-4.4505,-4.4584,-4.4495,-4.4541,-4.4543,-4.4536,-4.474,-4.4778,-4.4918,-4.4673,-4.4676,-4.4679,0,-4.4452,-4.4476,-4.4587,-4.4585,-4.4602,-4.4651,-4.4676,-4.4711,-4.4719,-4.4707,-4.4724,-4.4684,-4.4743,-4.4666,-4.4746,-4.4685,-4.4703,-4.4699,-4.4704,-4.4702,-4.4616,-4.4741,-4.4962,-4.4982,-4.4708,-4.4706,-4.4704,0,-4.46,-4.4661,-4.4734,-4.4744,-4.4744,-4.478,-4.4781,-4.4786,-4.4806,-4.4828,-4.484,-4.487,-4.4884,-4.4907,-4.4876,-4.4823,-4.4959,-4.488,-4.4948,-4.4949,-4.4975,-4.4973,-4.5198,-4.4995,-4.4995,-4.4994,-4.4994,0,-4.4769,-4.4839,-4.48,-4.4845,-4.4921,-4.4882,-4.4958,-4.4952,-4.4957,-4.4999,-4.4947,-4.4987,-4.4945,-4.4981,-4.4957,-4.5025,-4.5033,-4.5023,-4.5015,-4.5025,-4.5026,-4.5032,-4.502,-4.5,-4.4999,-4.4998,-4.4997,0,-4.4945,-4.4923,-4.4998,-4.4993,-4.4994,-4.5049,-4.5044,-4.5085,-4.5071,-4.5124,-4.5134,-4.5111,-4.5151,-4.5123,-4.5163,-4.5146,-4.5235,-4.5215,-4.5232,-4.5225,-4.5293,-4.5285,-4.5526,-4.5554,-4.5337,-4.5339,-4.5341,0,-4.5052,-4.5104,-4.5106,-4.513,-4.5136,-4.5177,-4.5197,-4.5162,-4.5186,-4.5201,-4.5239,-4.5275,-4.5301,-4.5367,-4.5353,-4.5383,-4.5361,-4.5444,-4.5365,-4.5373,-4.5358,-4.5353,-4.5357,-4.5458,-4.546,-4.5463,-4.5464,0,-4.5245,-4.5231,-4.5264,-4.5293,-4.532,-4.5341,-4.5358,-4.5381,-4.5346,-4.5375,-4.5416,-4.5436,-4.5477,-4.5512,-4.5538,-4.5538,-4.5495,-4.549,-4.5507,-4.5515,-4.5521,-4.5515,-4.527,-4.5483,-4.5481,-4.548,-4.5479,-4.5478,-4.5386,-4.5429,-4.5436,-4.5474,-4.5484,-4.5501,-4.5539,-4.553,-4.5563,-4.5594,-4.5572,-4.562,-4.5627,-4.5657,-4.5663,-4.5699,-4.5664,-4.569,-4.5695,-4.5701,-4.5709,-4.552,-4.5704,-4.5703,-4.5703,-4.5702,-4.5702,0,-4.5572,-4.5575,-4.561,-4.5636,-4.5666,-4.5626,-4.5643,-4.567,-4.5713,-4.5724,-4.5752,-4.5798,-4.5832,-4.5822,-4.5853,-4.5883,-4.5864,-4.5892,-4.5887,-4.5887,-4.5739,-4.572,-4.5907,-4.5907,-4.5907,-4.5907,-4.5907,-4.5907,-4.5672,-4.5741,-4.5729,-4.5803,-4.5804,-4.5851,-4.5864,-4.5879,-4.5888,-4.5942,-4.5971,-4.5965,-4.5967,-4.5998,-4.6027,-4.6023,-4.6035,-4.6069,-4.6058,-4.5918,-4.5898,-4.5878,-4.586,-4.6073,-4.6074,-4.6202,-4.6203,-4.6204]},{"header":{"parameterUnit":"m.s-1","parameterCategory":1,"la1":30.2991,"la2":30.254,"lo1":-89.0895,"lo2":-89.0444,"dy":0.0017,"dx":0.0017,"nx":28,"ny":28,"refTime":"2023-09-05T03:00:00:Z","depth":0,"parameterNumber":3,"parameterNumberName":"V-component_of_WINDS"},"data":[0,0,0,0,0,0,0,0,0,0,0,0,0,0,0,0,0,0,0,0,0,0,0,0,0,0,0,0,0,0,0,0,0,0,0,0,0,0,0,0,0,0,0,0,0,0,0,0,0,0,0,0,0,0,0,0,0,0,1.1703,1.1703,0,1.1677,1.1677,1.1676,1.1588,1.1586,1.1584,1.1582,1.1556,1.1558,1.1559,0,0,0,0,0,0,0,0,0,0,0,0,0,1.1679,1.168,1.1703,1.1703,1.1703,1.1677,1.1677,1.1676,1.1588,1.1586,1.1583,1.1581,1.1556,1.1557,1.1559,0,0,0,0,0,0,0,0,0,0,0,0,0,1.1675,1.1681,1.1703,1.1655,1.1651,1.1677,1.1677,1.1676,1.1589,1.1586,1.1583,1.158,1.1556,1.1557,1.1559,1.163,0,0,1.1564,1.1565,0,0,0,0,0,0,0,0,1.1676,1.1676,1.1663,1.1659,1.1654,1.1633,1.1659,1.1661,1.1589,1.1612,1.1582,1.1578,1.1584,1.1583,1.1585,1.1628,1.1627,1.1565,1.1566,1.1566,1.1567,0,0,0,0,0,0,0,1.1676,1.1677,1.1693,1.1663,1.1657,1.1636,1.1632,1.1659,1.1615,1.161,1.1604,1.1602,1.1581,1.1584,1.1584,1.1627,1.1564,1.1566,1.1567,1.1568,1.1728,1.1731,0,0,0,0,0,0,1.1683,1.1678,1.1694,1.1692,1.1657,1.1639,1.1635,1.1642,1.1615,1.1608,1.1604,1.1598,1.1582,1.1582,1.1583,1.1664,1.1566,1.1568,1.1569,1.1725,1.1729,1.1732,0,0,0,0,0,0,1.1683,1.1685,1.1695,1.1683,1.1683,1.1643,1.1652,1.1643,1.1646,1.161,1.1602,1.1615,1.158,1.158,1.1619,1.1661,1.1569,1.157,1.1721,1.1726,1.173,1.1826,0,0,0,0,0,0,1.1682,1.1685,1.1711,1.1684,1.1684,1.1731,1.1655,1.1645,1.1649,1.164,1.1618,1.1611,1.1577,1.1617,1.162,1.1662,1.1572,1.1717,1.1723,1.1729,1.1819,1.1834,1.1846,0,0,0,0,0,1.1682,1.1739,1.1713,1.1715,1.1715,1.1733,1.1733,1.1692,1.1653,1.1678,1.1656,1.1612,1.1657,1.1621,1.1625,1.1668,1.1714,1.1721,1.1728,1.1813,1.1831,1.1846,0,0,0,0,0,0,1.1772,1.1735,1.1705,1.1755,1.1748,1.1718,1.1749,1.1712,1.1716,1.1708,1.1658,1.1654,1.17,1.1688,1.1649,1.1735,1.1678,1.1686,1.1741,1.1758,1.1771,1.1773,1.1573,0,0,0,0,0,1.1798,1.1816,1.1782,1.183,1.1828,1.179,1.1796,1.1766,1.1756,1.1753,1.1733,1.1726,1.1739,1.1748,1.1757,1.1817,1.1812,1.1849,1.1863,1.1874,1.1881,1.1913,1.193,1.1756,1.1756,1.1755,0,0,1.1851,1.1833,1.1847,1.1848,1.1838,1.1859,1.1788,1.1811,1.1826,1.1757,1.1791,1.1777,1.1766,1.1816,1.1837,1.1808,1.1929,1.1883,1.1893,1.1894,1.1922,1.1939,1.1954,1.176,1.176,1.1759,0,0,1.1958,1.1947,1.1985,1.1978,1.1965,1.1939,1.1949,1.1925,1.1913,1.1948,1.1896,1.1913,1.1936,1.193,1.193,1.2038,1.1998,1.2043,1.2114,1.2145,1.2159,1.2171,1.2209,1.2224,1.2051,1.2051,1.2051,0,1.2026,1.2054,1.201,1.2038,1.204,1.1978,1.2018,1.2013,1.2004,1.2007,1.1974,1.2002,1.199,1.2038,1.2065,1.2067,1.2077,1.2044,1.216,1.2172,1.2182,1.2219,1.2233,1.2056,1.2056,1.2055,1.2055,0,1.2138,1.2159,1.2192,1.2185,1.2191,1.2224,1.2186,1.2198,1.2168,1.2146,1.2183,1.2167,1.2173,1.2182,1.2153,1.2227,1.2209,1.2169,1.211,1.2205,1.2238,1.2252,1.2064,1.2062,1.2061,1.2059,0,0,1.23,1.2269,1.2282,1.2279,1.2261,1.2276,1.2308,1.2313,1.2324,1.2321,1.2347,1.2368,1.2331,1.2332,1.2302,1.233,1.2417,1.2286,1.2285,1.2311,1.2498,1.2528,1.2544,1.2391,1.2393,1.2395,1.2499,0,1.2401,1.2452,1.2415,1.2473,1.2492,1.2435,1.2462,1.2455,1.2437,1.245,1.243,1.2446,1.2396,1.2396,1.2421,1.2401,1.2453,1.2393,1.2414,1.2415,1.2418,1.2561,1.2592,1.2691,1.2511,1.2514,1.2515,0,1.2526,1.2529,1.2589,1.2569,1.2575,1.26,1.2603,1.2617,1.2608,1.2593,1.2594,1.2557,1.2588,1.2531,1.2573,1.2532,1.2539,1.2531,1.2534,1.2533,1.247,1.2565,1.2721,1.2736,1.2535,1.2534,1.2532,0,1.2638,1.2657,1.2695,1.2694,1.2671,1.2691,1.2682,1.2671,1.2677,1.268,1.2683,1.269,1.2693,1.27,1.2666,1.2628,1.2712,1.2653,1.2701,1.2702,1.272,1.2719,1.288,1.2726,1.2726,1.2725,1.2725,0,1.2755,1.2794,1.2745,1.2769,1.2811,1.2769,1.2812,1.2798,1.2788,1.2809,1.276,1.2781,1.2735,1.2751,1.2725,1.2764,1.2766,1.2755,1.2747,1.2759,1.276,1.2762,1.2754,1.2729,1.2728,1.2728,1.2727,0,1.2886,1.2855,1.2893,1.2869,1.2864,1.2897,1.2876,1.2898,1.2877,1.2903,1.2907,1.2875,1.2891,1.2858,1.2871,1.2853,1.2908,1.289,1.2911,1.2905,1.2955,1.2951,1.3122,1.3142,1.2976,1.2977,1.2979,0,1.2962,1.2991,1.2971,1.2981,1.2975,1.2992,1.2999,1.2959,1.2967,1.2961,1.2983,1.2996,1.3004,1.3033,1.3011,1.302,1.3002,1.3061,1.3003,1.3014,1.3003,1.3001,1.3004,1.3073,1.3075,1.3077,1.3078,0,1.3101,1.3085,1.3095,1.3102,1.3111,1.3114,1.3113,1.3124,1.3082,1.3094,1.3111,1.3117,1.313,1.3144,1.3148,1.314,1.3103,1.3097,1.3108,1.312,1.3131,1.3126,1.2943,1.3093,1.3091,1.309,1.3089,1.3089,1.3207,1.323,1.322,1.3234,1.323,1.3231,1.325,1.3232,1.3245,1.3252,1.3228,1.325,1.3242,1.3244,1.3241,1.3258,1.3231,1.3248,1.3252,1.3257,1.3265,1.3129,1.3259,1.3258,1.3258,1.3257,1.3257,0,1.3343,1.3334,1.3347,1.3349,1.336,1.3324,1.3322,1.3335,1.3355,1.335,1.336,1.3379,1.3393,1.3372,1.3382,1.34,1.3383,1.3404,1.3402,1.3401,1.3288,1.3277,1.3417,1.3417,1.3417,1.3417,1.3417,1.3417,1.3415,1.3453,1.3436,1.3472,1.3462,1.3484,1.3486,1.3487,1.3483,1.3508,1.3519,1.3505,1.3495,1.3504,1.3515,1.3508,1.3514,1.3541,1.3529,1.3424,1.3408,1.3394,1.3383,1.3543,1.3543,1.364,1.3641,1.3641]}]]